Simultaneous Nadir Overpasses (SNOs) Predictions

Prediction of SNOs between GOES-17 and TERRA Satellite Orbit:

Table of predicted SNOs for the next 14.0 days since TLE Epoch: 12/14/2024
Index Date Time (GOES-17) GOES-17 Lat,Lon TERRA Lat,Lon Distance(km) Time Diff (sec)
1 12/14/2024 04:17:32 0.01,-104.66 0.78,-100.95 421.67 80
2 12/14/2024 16:37:12 -0.01,-104.71 0.20,-105.74 116.72 80
3 12/16/2024 16:21:29 0.01,-104.71 -0.71,-101.30 387.15 80
4 12/17/2024 04:41:18 -0.01,-104.67 -0.29,-106.12 165.12 80
5 12/19/2024 04:20:14 -0.03,-104.67 0.58,-101.68 339.05 80
6 12/19/2024 16:39:53 0.03,-104.71 0.43,-106.46 199.67 80
7 12/21/2024 16:24:10 0.04,-104.72 -0.55,-102.03 305.54 80
8 12/22/2024 04:43:58 -0.04,-104.68 -0.51,-106.84 245.70 80
9 12/24/2024 04:22:54 -0.04,-104.69 0.44,-102.41 259.44 80
10 12/24/2024 16:42:32 0.04,-104.73 0.54,-107.19 279.80 80
11 12/26/2024 16:26:48 0.04,-104.74 -0.38,-102.75 225.74 80
12 12/27/2024 04:46:35 -0.04,-104.71 -0.66,-107.56 324.74 80
